Regional Weather Roundup
Issued by NWS Cleveland, OH

Home | Current Version | Previous Version | Graphics & Text | Print | Product List | Glossary On
Versions: 1 2 3 4 5 6 7 8 9 10 11 12 13 14 15 16 17 18 19 20 21 22 23 24 25 26 27 28 29 30 31 32 33 34 35 36 37 38 39 40 41 42 43 44 45 46 47 48 49 50
000
ASUS41 KCLE 271510
RWRCLE
OHIO REGIONAL WEATHER ROUNDUP
NATIONAL WEATHER SERVICE WILMINGTON, OH
1100 AM EDT MON APR 27 2015

NOTE: "FAIR" INDICATES FEW OR NO CLOUDS BELOW 12,000 FEET WITH NO
SIGNIFICANT WEATHER AND/OR OBSTRUCTIONS TO VISIBILITY.

OHZ001>008-015>018-024>027-034-035-043-044-271600-
   NORTHWEST OHIO

CITY           SKY/WX    TMP DP  RH WIND       PRES   REMARKS
DEFIANCE       CLOUDY   N/A N/A N/A MISG      30.02R
FINDLAY        CLOUDY    48  34  58 N10       30.00R
TOLEDO EXPRESS CLOUDY    46  35  65 N9        30.01R
TOLEDO EXEC    CLOUDY    46  34  62 N6        30.01R
LIMA           CLOUDY    48  35  60 N10       30.00R
$$

OHZ009>014-019>023-028>033-038-089-271600-
   NORTHEAST OHIO

CITY           SKY/WX    TMP DP  RH WIND       PRES   REMARKS
CLE-HOPKINS    CLOUDY    40  35  83 N13G24    30.00R
CLE-LAKEFRONT  CLOUDY    41  35  79 NW13      29.97R
CUY CO. ARPT   CLOUDY    39  37  93 NW14      29.96R
LORAIN-ELYRIA  CLOUDY    40  36  86 N13       29.98R
ASHTABULA      LGT RAIN  38  35  89 NW9       29.92R FOG
AKRON-CANTON   LGT RAIN  41  36  82 N14       29.93R
WOOSTER        LGT RAIN  41  38  89 NW15      29.96R
MANSFIELD      CLOUDY    43  36  76 N13       29.97R
YOUNGSTOWN     LGT RAIN  40  36  86 NW14      29.90R
$$

OHZ042-051>053-060>062-070>072-077>081-271600-
  SOUTHWEST OHIO

CITY           SKY/WX    TMP DP  RH WIND       PRES   REMARKS
CINC-COVINGTON SUNNY     55  39  54 N5        29.97F
CINC-LUNKEN    SUNNY     55  39  54 W6        29.98F
HAMILTON       SUNNY     55  38  52 NW7       29.98F
DAYTON         MOSUNNY   53  35  50 VRB3      29.99S
WRIGHT-PAT AFB MOSUNNY   51  35  53 NW6       29.98S
DAYTON GENERAL SUNNY     52  35  52 NW6       29.96F
WILMINGTON     SUNNY     52  32  46 W6        29.96F
$$

OHZ036-037-039>041-045>050-054>059-063>069-073>076-082>088-271600-
  CENTRAL AND SOUTHEAST OHIO

CITY           SKY/WX    TMP DP  RH WIND       PRES   REMARKS
COLUMBUS       PTSUNNY   51  34  52 N9        29.98R
OSU AIRPORT    CLOUDY    51  34  52 N10       29.98R
BOLTON FIELD   CLOUDY    50  36  57 NW10      29.99R
RICKENBACK AFB PTSUNNY   50  33  53 NW7       29.98S
NEWARK         CLOUDY    51  34  52 NW7       29.96R
MARION         CLOUDY    49  34  56 N14       29.98R
LANCASTER      CLOUDY    51  35  54 NW7       29.98R
ZANESVILLE     CLOUDY    49  33  54 NW7       29.96R
NEW PHILLY     CLOUDY    47  35  63 NW10      29.95R
$$


USA.gov is the U.S. government's official web portal to all federal, state and local government web resources and services.